144  
ASUS43 KDTX 221910  
RWRMI  
MICHIGAN HOURLY REGIONAL WEATHER ROUNDUP  
NATIONAL WEATHER SERVICE DETROIT/PONTIAC MI  
300 PM EDT FRI OCT 22 2021  
 
NOTE: "FAIR" INDICATES FEW OR NO CLOUDS BELOW 12,000 FEET WITH NO  
SIGNIFICANT WEATHER AND/OR TO VISIBILITY
.  
 
MIZ047>049-052>055-059>063-066>070-074>076-081>083-222000-  
SOUTHEAST LOWER MICHIGAN  
 
CITY SKY/WX TMP DP RH WIND PRES REMARKS
 
ADRIAN PTSUNNY 48 31 51 VRB5 30.03F  
ALMA CLOUDY 46 37 71 E6 30.03F  
ANN ARBOR PTSUNNY 49 32 52 NW7 30.01F  
BAD AXE CLOUDY 46 35 65 CALM 30.01F  
CARO CLOUDY 46 33 60 NW6 30.02F  
DETROIT CITY PTSUNNY 52 33 48 N6 30.01F  
DETROIT PTSUNNY 51 32 48 N7 30.02F  
FLINT CLOUDY 48 34 58 N7 30.03F  
GROSSE ILE PTSUNNY 50 26 40 N5 30.01S  
HILLSDALE PTSUNNY 49 34 55 CALM 30.01F  
HOWELL CLOUDY 47 33 57 N5 30.02F  
 
CITY SKY/WX TMP DP RH WIND PRES REMARKS
 
JACKSON PTSUNNY 50 32 50 VRB5 30.01F  
LAMBERTVILLE PTSUNNY 50 33 53 CALM 30.02F  
LANSING CLOUDY 50 34 54 VRB3 30.03F  
LAPEER CLOUDY 47 32 56 NW3 30.02F  
MASON CLOUDY 49 34 56 CALM 30.02F  
MONROE PTSUNNY 49 31 50 NW7 30.01F  
MT. CLEMENS PTSUNNY 49 39 68 VRB3 30.00F  
PONTIAC PTSUNNY 48 33 56 VRB5 30.00F  
PORT HOPE N/A 45 40 82 W8 30.01F  
PORT HURON CLOUDY 50 34 53 NW3 30.00F  
TRI CITIES CLOUDY 46 34 62 VRB3 30.04F  
MIDLAND CLOUDY 46 35 64 CALM 30.03F  
TROY PTSUNNY 51 33 51 CALM 30.02F  
SAGINAW HB CLOUDY 46 35 64 N5 30.04S  

 
MIZ043>046-050>051-056>058-064>065-071>073-077>080-222000-  
SOUTHWEST LOWER MICHIGAN  
 
CITY SKY/WX TMP DP RH WIND PRES REMARKS
 
BATTLE CREEK CLOUDY 50 37 61 CALM 30.02F  
BENTON HARBOR CLOUDY 49 39 68 S9 30.02F  
BIG RAPIDS CLOUDY 46 39 75 N6 30.00F  
COLDWATER CLOUDY 52 38 58 CALM 30.01F  
FREMONT PTSUNNY 50 39 65 CALM 30.01F  
HOLLAND CLOUDY 50 39 66 S3 30.02F  
GRAND RAPIDS CLOUDY 50 38 63 S3 30.02F  
IONIA CLOUDY 49 34 56 E5 30.01F  
KALAMAZOO PTSUNNY 53 37 54 CALM 30.02F  
LUDINGTON PTSUNNY 50 37 61 W5 30.01F  
MARSHALL CLOUDY 50 36 60 CALM 30.01F  
MOUNT PLEASANT CLOUDY 48 35 61 SE3 30.01F  
MUSKEGON CLOUDY 50 40 68 W5 30.02F  
SOUTH HAVEN CLOUDY 51 39 63 S6 30.02S  

 
MIZ016>042-222000-  
NORTHERN LOWER MICHIGAN  
 
CITY SKY/WX TMP DP RH WIND PRES REMARKS
 
ALPENA CLOUDY 45 31 58 CALM 30.02F  
BEAVER ISLAND SUNNY 47 35 64 NW3 30.01F  
BELLAIRE PTSUNNY 48 36 63 CALM 30.01F  
CADILLAC CLOUDY 44 40 86 E5 29.99F  
CHARLEVOIX MOSUNNY 48 35 62 N6 30.01F  
FRANKFORT CLOUDY 46 42 85 N5 30.02S  
GAYLORD CLOUDY 48 29 47 VRB3 29.99F  
GRAYLING CLOUDY 45 34 64 E5 29.99F  
HARBOR SPRINGS CLOUDY 49 36 60 W6 30.01S  
MANISTEE CLOUDY 48 44 86 NW5 30.01F  
OSCODA CLOUDY 46 32 58 NE3 30.02S  
PELLSTON PTSUNNY 48 35 60 VRB5 30.01F  
ROGERS CITY CLOUDY 46 33 62 SE3 30.02F  
TRAVERSE CITY CLOUDY 49 35 58 N6 30.00F  

 
MIZ007>008-015-222000-  
EASTERN UPPER MICHIGAN  
 
CITY SKY/WX TMP DP RH WIND PRES REMARKS
 
KINROSS CLOUDY 43 38 82 NE5 30.00S  
MACKINAC ISLAN PTSUNNY 45 32 60 W3 30.00S  
NEWBERRY LGT RAIN 42 37 81 NW3 30.00S  
S. S. MARIE SUNNY 45 33 63 W3 29.99F  
MUNISING N/A 46 40 79 NW5 30.00F  

 
MIZ004>006-011>014-085-222000-  
CENTRAL UPPER MICHIGAN  
 
CITY SKY/WX TMP DP RH WIND PRES REMARKS
 
MANISTIQUE LGT RAIN 47 40 79 W5 30.00F  
ESCANABA CLOUDY 48 30 49 NW6 30.02F  
MENOMINEE MOSUNNY 46 30 53 W5 30.04F  
SAWYER-GWINN CLOUDY 45 32 61 CALM 30.00F  

 
MIZ001>003-009>011-084-222000-  
WESTERN UPPER MICHIGAN  
 
CITY SKY/WX TMP DP RH WIND PRES REMARKS
 
IRON MOUNTAIN CLOUDY 45 29 53 NW8 30.01F  
HOUGHTON LGT RAIN 43 37 79 N7 30.02F  
COPPER HARBOR N/A 45 37 73 NE10 30.02F  
IRONWOOD CLOUDY 39 34 82 N5 30.06S  

 
 
ABBREVIATIONS USED IN REMARKS  
TC - TEMPERATURE IN CELSIUS  
WCI - WIND CHILL INDEX  
HX - HEAT INDEX  
VSB - VISIBILITY  
 
 
 
CLICK HERE TO GO TO PREVIOUS BULLETINS.

The Nexlab MI Page Main Text Page